This demonstration page uses our WeatherBlox Daily Observations layout. Learn more.

Left ArrowRight Arrow

Hourly Observations for July 16, 2015

Temp ( °F °C ) Dew Point ( °F °C ) Humidity (%) Winds ( mph kmh ) Pressure ( in mb ) Visibility ( mi km ) Precip ( " mm )
12:53 am 00:53 Clear 65 18.3 61 16.1 87 87 E 6 9 30.04 1017 10 16 N/A
1:53 am 01:53 Clear 63 17.2 60 15.6 90 90 N N/A 30.03 1017 10 16 N/A
2:53 am 02:53 Clear 60 15.6 59 15 96 96 N N/A 30.04 1017 10 16 N/A
3:53 am 03:53 Clear 59 15 58 14.4 96 96 N N/A 30.02 1017 9 14 N/A
4:53 am 04:53 Clear 59 15 57 13.9 93 93 NNE 3 6 30.04 1017 10 16 N/A
5:53 am 05:53 Clear 59 15 57 13.9 93 93 N N/A 30.04 1017 10 16 N/A
6:53 am 06:53 Sunny 58 14.4 57 13.9 97 97 N N/A 30.05 1018 8 13 N/A
7:53 am 07:53 Sunny 62 16.7 57 13.9 84 84 N N/A 30.06 1018 10 16 N/A
8:53 am 08:53 Sunny 66 18.9 58 14.4 75 75 E 3 6 30.07 1018 10 16 N/A
9:53 am 09:53 Sunny 70 21.1 60 15.6 71 71 VRB 5 7 30.07 1018 10 16 N/A
10:53 am 10:53 Sunny 73 22.8 61 16.1 66 66 N N/A 30.07 1018 10 16 N/A
11:53 am 11:53 Sunny 75 23.9 61 16.1 62 62 N N/A 30.06 1018 10 16 N/A
12:53 pm 12:53 Sunny 79 26.1 62 16.7 56 56 E 6 9 30.06 1018 10 16 N/A
1:53 pm 13:53 Sunny 79 26.1 59 15 50 50 N N/A 30.04 1017 10 16 N/A
2:53 pm 14:53 Sunny 81 27.2 58 14.4 45 45 N N/A 30.03 1017 10 16 N/A
3:53 pm 15:53 Sunny 81 27.2 62 16.7 53 53 NNW 5 7 30.01 1016 10 16 N/A
4:53 pm 16:53 Sunny 82 27.8 65 18.3 56 56 ENE 5 7 29.99 1016 10 16 N/A
5:53 pm 17:53 Sunny 83 28.3 61 16.1 48 48 E 6 9 29.98 1015 10 16 N/A
6:53 pm 18:53 Sunny 81 27.2 58 14.4 45 45 SSE 5 7 29.97 1015 10 16 N/A
7:53 pm 19:53 Sunny 80 26.7 59 15 49 49 SSE 3 6 29.95 1014 10 16 N/A
8:53 pm 20:53 Sunny 78 25.6 63 17.2 60 60 SSE 3 6 29.94 1014 10 16 N/A
9:53 pm 21:53 Clear with Light Rain 75 23.9 66 18.9 74 74 N N/A 29.96 1014 9 14 N/A
10:53 pm 22:53 Clear 74 23.3 67 19.4 79 79 S 3 6 29.97 1015 10 16 N/A
11:53 pm 23:53 Clear 73 22.8 67 19.4 81 81 N N/A 29.96 1015 10 16 N/A

Powered by AerisWeather